TimeCDT,TemperatureF,Dew PointF,Humidity,Sea Level PressureIn,VisibilityMPH,Wind Direction,Wind SpeedMPH,Gust SpeedMPH,PrecipitationIn,Events,Conditions,WindDirDegrees,DateUTC
12:15 AM,62.6,62.6,100,30.04,4.0,Calm,Calm,-,N/A,,Clear,0,2012-10-06 05:15:00
12:35 AM,62.6,62.6,100,30.04,4.0,Calm,Calm,-,N/A,,Clear,0,2012-10-06 05:35:00
12:55 AM,62.6,62.6,100,30.04,5.0,Calm,Calm,-,N/A,,Clear,0,2012-10-06 05:55:00
1:15 AM,62.6,62.6,100,30.04,4.0,Calm,Calm,-,N/A,,Clear,0,2012-10-06 06:15:00
1:35 AM,62.6,62.6,100,30.04,4.0,Calm,Calm,-,N/A,,Clear,0,2012-10-06 06:35:00
1:55 AM,62.6,60.8,94,30.04,4.0,Calm,Calm,-,N/A,,Clear,0,2012-10-06 06:55:00
2:15 AM,62.6,62.6,100,30.05,5.0,Calm,Calm,-,N/A,,Clear,0,2012-10-06 07:15:00
2:35 AM,62.6,60.8,94,30.04,5.0,Calm,Calm,-,N/A,,Clear,0,2012-10-06 07:35:00
2:55 AM,62.6,60.8,94,30.04,4.0,Calm,Calm,-,N/A,,Clear,0,2012-10-06 07:55:00
3:15 AM,60.8,60.8,100,30.03,3.0,Calm,Calm,-,N/A,,Clear,0,2012-10-06 08:15:00
3:55 AM,60.8,60.8,100,30.03,4.0,Calm,Calm,-,N/A,,Clear,0,2012-10-06 08:55:00
4:15 AM,60.8,60.8,100,30.03,4.0,Calm,Calm,-,N/A,,Clear,0,2012-10-06 09:15:00
4:35 AM,60.8,60.8,100,30.03,4.0,Calm,Calm,-,N/A,,Clear,0,2012-10-06 09:35:00
4:55 AM,60.8,60.8,100,30.03,4.0,Calm,Calm,-,N/A,,Mostly Cloudy,0,2012-10-06 09:55:00
5:15 AM,64.4,62.6,94,30.04,9.0,NW,5.8,-,N/A,,Mostly Cloudy,320,2012-10-06 10:15:00
5:35 AM,64.4,62.6,94,30.04,10.0,Calm,Calm,-,N/A,,Partly Cloudy,0,2012-10-06 10:35:00
5:55 AM,62.6,62.6,100,30.04,7.0,Calm,Calm,-,N/A,,Clear,0,2012-10-06 10:55:00
6:15 AM,62.6,60.8,94,30.05,5.0,Calm,Calm,-,N/A,,Clear,0,2012-10-06 11:15:00
6:35 AM,62.6,60.8,94,30.06,3.0,Calm,Calm,-,N/A,,Clear,0,2012-10-06 11:35:00
6:55 AM,62.6,62.6,100,30.06,7.0,NNW,4.6,-,N/A,,Clear,330,2012-10-06 11:55:00
7:15 AM,62.6,62.6,100,30.06,5.0,NNW,6.9,-,N/A,,Clear,340,2012-10-06 12:15:00
7:35 AM,62.6,62.6,100,30.07,0.2,NNW,8.1,-,N/A,Fog,Fog,340,2012-10-06 12:35:00
7:55 AM,62.6,62.6,100,30.08,0.2,NNW,6.9,-,N/A,Fog,Fog,340,2012-10-06 12:55:00
8:15 AM,62.6,62.6,100,30.08,0.2,NNW,11.5,-,N/A,Fog,Fog,330,2012-10-06 13:15:00
8:35 AM,60.8,60.8,100,30.09,0.2,NNW,8.1,-,N/A,Fog,Fog,330,2012-10-06 13:35:00
9:15 AM,60.8,60.8,100,30.10,0.5,NNW,8.1,-,N/A,Fog,Fog,340,2012-10-06 14:15:00
9:35 AM,60.8,60.8,100,30.10,0.8,NW,8.1,-,N/A,,Overcast,320,2012-10-06 14:35:00
9:55 AM,59.0,59.0,100,30.10,1.0,NNW,8.1,-,N/A,,Overcast,340,2012-10-06 14:55:00
10:15 AM,59.0,59.0,100,30.11,3.0,NNW,4.6,-,N/A,,Overcast,330,2012-10-06 15:15:00
10:35 AM,59.0,57.2,94,30.11,4.0,NNW,8.1,-,N/A,,Overcast,340,2012-10-06 15:35:00
11:15 AM,60.8,57.2,88,30.10,5.0,NNW,5.8,-,N/A,,Overcast,340,2012-10-06 16:15:00
11:35 AM,60.8,57.2,88,30.11,5.0,NNW,5.8,-,N/A,,Overcast,330,2012-10-06 16:35:00
11:55 AM,60.8,57.2,88,30.10,7.0,North,6.9,-,N/A,,Overcast,350,2012-10-06 16:55:00
12:15 PM,60.8,57.2,88,30.09,8.0,WNW,4.6,-,N/A,,Overcast,300,2012-10-06 17:15:00
12:35 PM,62.6,57.2,82,30.09,7.0,NNW,5.8,-,N/A,,Overcast,340,2012-10-06 17:35:00
12:55 PM,62.6,57.2,82,30.08,9.0,NW,6.9,-,N/A,,Overcast,310,2012-10-06 17:55:00
1:15 PM,64.4,59.0,83,30.07,9.0,NNW,4.6,-,N/A,,Mostly Cloudy,340,2012-10-06 18:15:00
1:35 PM,66.2,60.8,83,30.06,9.0,WNW,3.5,-,N/A,,Partly Cloudy,300,2012-10-06 18:35:00
1:55 PM,69.8,60.8,73,30.05,10.0,North,6.9,-,N/A,,Clear,350,2012-10-06 18:55:00
2:15 PM,69.8,60.8,73,30.05,10.0,West,3.5,-,N/A,,Clear,270,2012-10-06 19:15:00
2:35 PM,69.8,60.8,73,30.04,9.0,NNW,5.8,-,N/A,,Clear,340,2012-10-06 19:35:00
2:55 PM,71.6,62.6,73,30.04,9.0,NNW,6.9,-,N/A,,Clear,340,2012-10-06 19:55:00
3:15 PM,71.6,62.6,73,30.04,8.0,NNW,6.9,-,N/A,,Scattered Clouds,330,2012-10-06 20:15:00
3:35 PM,71.6,60.8,69,30.04,10.0,NNW,8.1,-,N/A,,Mostly Cloudy,330,2012-10-06 20:35:00
3:55 PM,69.8,60.8,73,30.03,10.0,NW,8.1,-,N/A,,Partly Cloudy,320,2012-10-06 20:55:00
4:15 PM,69.8,60.8,73,30.03,10.0,NW,6.9,-,N/A,,Clear,310,2012-10-06 21:15:00
4:35 PM,69.8,60.8,73,30.03,10.0,NNW,6.9,-,N/A,,Clear,340,2012-10-06 21:35:00
4:55 PM,69.8,60.8,73,30.03,10.0,NNW,5.8,-,N/A,,Clear,330,2012-10-06 21:55:00
5:15 PM,69.8,60.8,73,30.03,10.0,NNW,6.9,-,N/A,,Clear,340,2012-10-06 22:15:00
5:35 PM,68.0,60.8,78,30.04,10.0,NNW,6.9,-,N/A,,Clear,330,2012-10-06 22:35:00
5:55 PM,66.2,60.8,83,30.04,10.0,NNW,6.9,-,N/A,,Partly Cloudy,330,2012-10-06 22:55:00
6:15 PM,64.4,59.0,83,30.04,10.0,NNW,8.1,-,N/A,,Scattered Clouds,330,2012-10-06 23:15:00
6:35 PM,64.4,59.0,83,30.05,10.0,NNW,8.1,-,N/A,,Clear,330,2012-10-06 23:35:00
6:55 PM,62.6,57.2,82,30.06,10.0,NW,10.4,-,N/A,,Partly Cloudy,320,2012-10-06 23:55:00
7:15 PM,60.8,57.2,88,30.07,10.0,NNW,6.9,-,N/A,,Scattered Clouds,340,2012-10-07 00:15:00
7:35 PM,57.2,55.4,94,30.08,10.0,NNW,10.4,-,N/A,,Mostly Cloudy,330,2012-10-07 00:35:00
7:55 PM,57.2,53.6,88,30.08,10.0,North,8.1,-,N/A,,Overcast,10,2012-10-07 00:55:00
8:15 PM,57.2,53.6,88,30.09,10.0,NNW,8.1,-,N/A,,Overcast,340,2012-10-07 01:15:00
8:35 PM,57.2,53.6,88,30.10,10.0,NNW,5.8,-,N/A,,Overcast,340,2012-10-07 01:35:00
8:55 PM,57.2,53.6,88,30.11,10.0,NNW,4.6,-,N/A,,Overcast,340,2012-10-07 01:55:00
9:15 PM,55.4,53.6,94,30.11,10.0,North,8.1,-,N/A,,Overcast,350,2012-10-07 02:15:00
9:35 PM,55.4,53.6,94,30.11,9.0,North,9.2,-,N/A,,Overcast,360,2012-10-07 02:35:00
9:55 PM,55.4,53.6,94,30.11,7.0,North,9.2,-,N/A,,Overcast,350,2012-10-07 02:55:00
11:15 PM,53.6,53.6,100,30.11,3.0,North,6.9,-,N/A,,Overcast,350,2012-10-07 04:15:00
11:35 PM,53.6,53.6,100,30.11,2.0,NNW,9.2,-,N/A,,Overcast,340,2012-10-07 04:35:00
11:55 PM,53.6,53.6,100,30.11,2.5,NNW,6.9,-,N/A,,Overcast,340,2012-10-07 04:55:00